Other Surface Observations
Issued by NWS

Home | Current Version | Previous Version | Text Only | Print | Product List | Glossary On
Versions: 1 2 3 4 5 6 7 8 9 10 11 12 13 14 15 16 17 18 19 20 21 22 23 24 25 26 27 28 29 30 31 32 33 34 35 36 37 38 39 40 41 42 43 44 45 46 47 48 49 50
000
SXUS52 KTAE 010318
OSOTAE
OSOTAE
North Florida/South Alabama/Southwest Georgia Weather Roundup
National Weather Service Tallahassee Florida
1100 PM EDT TUE SEP 30 2014

Note: "fair" indicates few or no clouds below 12,000 feet with no
significant weather and/or obstructions to visibility.

!FLZ017-115-028-034-025-010400
...North Florida...

CITY           SKY/WX    TMP DP  RH WIND       PRES   REMARKS
TALLAHASSEE    CLOUDY    75  69  81 N3        29.90S
APALACHICOLA   PTCLDY    75  70  84 N5        29.89S
PERRY          MOCLDY    63  59  88 NE3       29.91S
CROSS CITY       N/A     75  71  87 NE3       29.89S
JACKSONVILLE   MOCLDY    71  70  96 CALM      29.90R
$$

!FLZ112-006-005-002-011-010400
...Florida Panhandle...

CITY           SKY/WX    TMP DP  RH WIND       PRES   REMARKS
MARIANNA       CLEAR     69  69 100 CALM      29.91R
BONIFAY        FAIR      67  66  97 CALM      29.92S
PANAMA CITY NW FAIR      70  67  90 CALM      29.90S
TYNDALL AFB    CLEAR     71  71  99 N2        29.90S
TYND DRONE APT FAIR      71  70  98 MISG      29.89S
DE FUNIAK SPR  FAIR      68  67  97 CALM      29.92S
EGLIN AFB      CLEAR     71  67  88 N2        29.90F
DESTIN         CLEAR     72  68  87 CALM      29.90F
HURLBURT       CLEAR     72  65  76 E3        29.89F
CRESTVIEW      PTCLDY    66  65  96 CALM      29.92F FOG
PENSACOLA      CLEAR     72  67  84 CALM      29.90S
$$

!ALZ063-066-010400
...South Alabama...

CITY           SKY/WX    TMP DP  RH WIND       PRES   REMARKS
DOTHAN         CLEAR     65  64  97 CALM      29.96R
OZARK CAIRNS   CLEAR     66  65  96 CALM      29.92S
FT RUCKER HELI CLEAR     67  65  93 CALM      29.91S FOG
RUCKER HELI 3  FAIR      67  66  97 SE1       29.95R
RUCKER HELI 2  FAIR      67  65  93 CALM      29.92R
FLORALA APT    CLEAR     67  64  90 CALM      29.93S
ANDALUSIA      CLEAR     70  65  84 CALM      29.92R
TROY           CLEAR     67  64  90 CALM      29.93R
EUFALA         FAIR      66  63  90 CALM      29.92R
MOBILE         CLEAR     71  69  93 CALM      29.91R
$$

!GAZ120>161-010400
...Southwest and South Central Georgia...

CITY           SKY/WX    TMP DP  RH WIND       PRES   REMARKS
THOMASVILLE    CLOUDY    72  72 100 CALM      29.92S
BAINBRIDGE     CLEAR     73  70  88 NE3       29.91F
MOODY AFB      CLOUDY    73  69  87 NE3       29.91S
VALDOSTA       CLOUDY    73  70  90 CALM      29.91S
MOULTRIE       PTCLDY    72  70  94 CALM      29.93S
BLAKELY          N/A     68  68 100 CALM        N/A  FOG
ALBANY         PTCLDY    70  68  93 CALM      29.93S
TIFTON         FAIR      68  67  98 CALM      29.92S
FITZGERALD     FAIR      69  66  91 CALM      29.95R
CORDELE        FAIR      68  67  95 CALM      29.93S
AMERICUS       FOG       64  64 100 CALM      29.95S VSB 1/2
HOMERVILLE     CLOUDY    75  72  88 CALM      29.92S
$$

!GMZ750-755-770-775-010400
...Coastal and Buoy Obs...

STATION/POSITION TIME  TEMP    WIND        PRES    VSBY  WAVE
                       AIR SEA DIR/SP/G                  HT/PER
                 (UTC) (F)     (DEG/KT/KT) (MB)    (MI)  (FT/S)
KEATON BEACH     0300   74      40/  5/  7 1012.3S
CEDAR KEY        0258   74      80/ 14/ 15 1012.2R
C TOWER          0300   77      40/ 14/ 15 1012.0R
APALACHICOLA BUO 0300   80 83   20/ 12/ 14 1011.3R         2/ 5
PANAMA CITY BUOY 0238   79 83   40/ 12/ 14 1011.4S         3/ 4
MOBILE BUOY      0225   79 82   90/ 12/ 14 1012.4R         2/ 5
ORANGE BCH AL BU 0300   78 81   80/ 12/ 14 1012.1F         1/ 3
$$



USA.gov is the U.S. government's official web portal to all federal, state and local government web resources and services.